• In Belarus
  • List of Countries
  • For 7 days
  • Water Temperature
  • Satellite Maps
  • Weather Map
  • Weather Widgets
  • user-avatar
    Login

    Hourly Weather Karabuzino

    Today, 23 February, Saturday

    Time Temperature Precipitation Wind Pressure Humidity
    00:00 -14°C° 0 mm 5 mps 760 mmHg 91%
    01:00 -14°C° 0 mm 4 mps 760 mmHg 92%
    02:00 -15°C° 0 mm 4 mps 760 mmHg 93%
    03:00 -16°C° 0 mm 3 mps 761 mmHg 95%
    04:00 -17°C° 0 mm 3 mps 761 mmHg 95%
    05:00 -17°C° 0 mm 2 mps 761 mmHg 95%
    06:00 -18°C° 0 mm 2 mps 761 mmHg 95%
    07:00 -17°C° 0 mm 2 mps 761 mmHg 94%
    08:00 -17°C° 0 mm 2 mps 761 mmHg 94%
    09:00 -17°C° 0 mm 2 mps 761 mmHg 93%
    10:00 -15°C° 0 mm 2 mps 760 mmHg 90%
    11:00 -14°C° 0 mm 3 mps 760 mmHg 87%
    12:00 -12°C° 0 mm 3 mps 759 mmHg 85%
    13:00 -10°C° 0 mm 3 mps 759 mmHg 83%
    14:00 -10°C° 0 mm 4 mps 758 mmHg 82%
    15:00 -9°C° 0 mm 4 mps 758 mmHg 81%
    16:00 -9°C° 0.2 mm 4 mps 757 mmHg 85%
    17:00 -10°C° 0.2 mm 5 mps 756 mmHg 89%
    18:00 -10°C° 0.2 mm 5 mps 756 mmHg 92%
    19:00 -10°C° 0.4 mm 5 mps 755 mmHg 93%
    20:00 -9°C° 0.4 mm 4 mps 755 mmHg 93%
    21:00 -9°C° 0.4 mm 4 mps 754 mmHg 94%
    22:00 -9°C° 0.2 mm 4 mps 754 mmHg 94%
    23:00 -7°C° 0.2 mm 3 mps 754 mmHg 94%

    Tomorrow, 24 February, Sunday

    Time Temperature Precipitation Wind Pressure Humidity
    00:00 -7°C° 0.2 mm 3 mps 754 mmHg 94%
    01:00 -7°C° 0 mm 3 mps 754 mmHg 95%
    02:00 -7°C° 0 mm 3 mps 753 mmHg 95%
    03:00 -5°C° 0 mm 2 mps 753 mmHg 96%
    04:00 -5°C° 0 mm 2 mps 753 mmHg 96%
    05:00 -5°C° 0 mm 2 mps 753 mmHg 97%
    06:00 -4°C° 0 mm 2 mps 753 mmHg 97%
    07:00 -4°C° 0.1 mm 2 mps 753 mmHg 97%
    08:00 -3°C° 0.1 mm 2 mps 753 mmHg 97%
    09:00 -2°C° 0.1 mm 2 mps 753 mmHg 97%
    10:00 -2°C° 0.1 mm 2 mps 753 mmHg 98%
    11:00 -1°C° 0.1 mm 2 mps 753 mmHg 99%
    12:00 +1°C° 0.1 mm 2 mps 753 mmHg 99%
    13:00 0°C° 0.1 mm 3 mps 753 mmHg 99%
    14:00 0°C° 0.1 mm 3 mps 753 mmHg 99%
    15:00 0°C° 0.1 mm 3 mps 752 mmHg 99%
    16:00 0°C° 0 mm 3 mps 752 mmHg 99%
    17:00 0°C° 0 mm 3 mps 752 mmHg 99%
    18:00 0°C° 0 mm 3 mps 752 mmHg 98%
    19:00 0°C° 0 mm 3 mps 751 mmHg 98%
    20:00 0°C° 0 mm 3 mps 751 mmHg 97%
    21:00 0°C° 0 mm 3 mps 750 mmHg 96%
    22:00 -1°C° 0.3 mm 4 mps 750 mmHg 96%
    23:00 -1°C° 0.3 mm 4 mps 749 mmHg 96%

    Day after tomorrow, 25 February, Monday

    Time Temperature Precipitation Wind Pressure Humidity
    00:00 -1°C° 0.3 mm 5 mps 748 mmHg 95%
    01:00 -1°C° 0.2 mm 5 mps 747 mmHg 95%
    02:00 -1°C° 0.2 mm 5 mps 746 mmHg 95%
    03:00 -1°C° 0.2 mm 5 mps 745 mmHg 94%
    04:00 -2°C° 0.1 mm 6 mps 745 mmHg 93%
    05:00 -2°C° 0.1 mm 6 mps 744 mmHg 91%
    06:00 -2°C° 0.1 mm 6 mps 744 mmHg 89%
    07:00 -2°C° 0.1 mm 6 mps 744 mmHg 89%
    08:00 -2°C° 0.1 mm 6 mps 743 mmHg 88%
    09:00 -2°C° 0.1 mm 6 mps 743 mmHg 87%
    10:00 -2°C° 0.2 mm 6 mps 743 mmHg 87%
    11:00 -2°C° 0.2 mm 6 mps 742 mmHg 88%
    12:00 -2°C° 0.2 mm 6 mps 742 mmHg 89%
    13:00 -2°C° 0.1 mm 6 mps 742 mmHg 89%
    14:00 -2°C° 0.1 mm 6 mps 741 mmHg 89%
    15:00 -2°C° 0.1 mm 6 mps 741 mmHg 89%
    16:00 -2°C° 0.1 mm 6 mps 741 mmHg 89%
    17:00 -1°C° 0.1 mm 5 mps 740 mmHg 89%
    18:00 -1°C° 0.1 mm 5 mps 740 mmHg 89%
    19:00 -2°C° 0 mm 5 mps 740 mmHg 89%
    20:00 -2°C° 0 mm 5 mps 740 mmHg 89%
    21:00 -2°C° 0 mm 5 mps 740 mmHg 89%
    22:00 -2°C° 0.2 mm 5 mps 740 mmHg 89%
    23:00 -2°C° 0.2 mm 6 mps 740 mmHg 88%

    26 February, Tuesday

    Time Temperature Precipitation Wind Pressure Humidity
    00:00 -2°C° 0.2 mm 6 mps 740 mmHg 88%
    01:00 -2°C° 0.1 mm 6 mps 740 mmHg 87%
    02:00 -3°C° 0.1 mm 6 mps 740 mmHg 87%
    03:00 -3°C° 0.1 mm 6 mps 740 mmHg 86%
    04:00 -3°C° 0 mm 6 mps 739 mmHg 87%
    05:00 -4°C° 0 mm 6 mps 739 mmHg 87%
    06:00 -4°C° 0 mm 6 mps 739 mmHg 87%
    07:00 -4°C° 0 mm 5 mps 739 mmHg 88%
    08:00 -4°C° 0 mm 5 mps 738 mmHg 88%
    09:00 -4°C° 0 mm 5 mps 738 mmHg 88%
    10:00 -4°C° 0.1 mm 5 mps 738 mmHg 88%
    11:00 -2°C° 0.1 mm 5 mps 738 mmHg 87%
    12:00 -3°C° 0.1 mm 6 mps 738 mmHg 87%
    13:00 -3°C° 0.1 mm 6 mps 738 mmHg 86%
    14:00 -3°C° 0.1 mm 6 mps 739 mmHg 86%
    15:00 -2°C° 0.1 mm 6 mps 739 mmHg 86%
    16:00 -3°C° 0 mm 6 mps 739 mmHg 86%
    17:00 -3°C° 0 mm 6 mps 740 mmHg 85%
    18:00 -4°C° 0 mm 6 mps 740 mmHg 85%
    19:00 -4°C° 0 mm 6 mps 741 mmHg 85%
    20:00 -5°C° 0 mm 6 mps 742 mmHg 86%
    21:00 -5°C° 0 mm 6 mps 742 mmHg 87%
    22:00 -6°C° 0 mm 6 mps 743 mmHg 88%
    23:00 -6°C° 0 mm 6 mps 743 mmHg 88%

    27 February, Wednesday

    Time Temperature Precipitation Wind Pressure Humidity
    00:00 -7°C° 0 mm 5 mps 744 mmHg 89%
    01:00 -8°C° 0 mm 5 mps 744 mmHg 90%
    02:00 -8°C° 0 mm 5 mps 744 mmHg 91%
    03:00 -9°C° 0 mm 4 mps 744 mmHg 92%
    04:00 -9°C° 0 mm 4 mps 744 mmHg 92%
    05:00 -9°C° 0 mm 4 mps 744 mmHg 93%
    06:00 -8°C° 0 mm 3 mps 744 mmHg 94%
    07:00 -8°C° 0 mm 3 mps 744 mmHg 94%
    08:00 -8°C° 0 mm 3 mps 744 mmHg 94%
    09:00 -8°C° 0 mm 3 mps 744 mmHg 95%
    10:00 -8°C° 0 mm 3 mps 743 mmHg 94%
    11:00 -8°C° 0 mm 3 mps 742 mmHg 94%
    12:00 -6°C° 0 mm 2 mps 742 mmHg 93%
    13:00 -6°C° 0 mm 2 mps 741 mmHg 91%
    14:00 -6°C° 0 mm 2 mps 740 mmHg 90%
    15:00 -6°C° 0 mm 2 mps 739 mmHg 88%
    16:00 -6°C° 0.1 mm 2 mps 738 mmHg 90%
    17:00 -6°C° 0.1 mm 2 mps 737 mmHg 92%
    18:00 -6°C° 0.1 mm 2 mps 737 mmHg 94%
    19:00 -6°C° 0.1 mm 2 mps 736 mmHg 94%
    20:00 -6°C° 0.1 mm 2 mps 735 mmHg 95%
    21:00 -5°C° 0.1 mm 2 mps 735 mmHg 96%
    22:00 -5°C° 0.1 mm 2 mps 734 mmHg 96%
    23:00 -5°C° 0.1 mm 2 mps 733 mmHg 97%

    28 February, Thursday

    Time Temperature Precipitation Wind Pressure Humidity
    00:00 -4°C° 0.1 mm 2 mps 732 mmHg 97%
    01:00 -4°C° 0.1 mm 2 mps 731 mmHg 97%
    02:00 -4°C° 0.1 mm 2 mps 731 mmHg 97%
    03:00 -4°C° 0.1 mm 2 mps 730 mmHg 97%
    04:00 -4°C° 0.3 mm 2 mps 729 mmHg 97%
    05:00 -4°C° 0.3 mm 2 mps 729 mmHg 97%
    06:00 -4°C° 0.3 mm 2 mps 728 mmHg 97%
    07:00 -3°C° 0.1 mm 2 mps 727 mmHg 97%
    08:00 -3°C° 0.1 mm 2 mps 727 mmHg 97%
    09:00 -3°C° 0.1 mm 2 mps 727 mmHg 97%
    10:00 -2°C° 0 mm 2 mps 727 mmHg 98%
    11:00 0°C° 0 mm 1 mps 726 mmHg 99%
    12:00 +1°C° 0 mm 1 mps 726 mmHg 99%
    13:00 +1°C° 0.1 mm 1 mps 726 mmHg 99%
    14:00 0°C° 0.1 mm 0 mps 726 mmHg 99%
    15:00 0°C° 0.1 mm 0 mps 726 mmHg 99%
    16:00 0°C° 0.1 mm 0 mps 726 mmHg 99%
    17:00 +1°C° 0.1 mm 1 mps 727 mmHg 98%
    18:00 0°C° 0.1 mm 1 mps 727 mmHg 97%
    19:00 0°C° 0.1 mm 1 mps 727 mmHg 97%
    20:00 -1°C° 0.1 mm 1 mps 727 mmHg 97%
    21:00 -1°C° 0.1 mm 1 mps 727 mmHg 97%
    22:00 -1°C° 0.1 mm 1 mps 727 mmHg 97%
    23:00 -3°C° 0.1 mm 2 mps 728 mmHg 97%
    Show more